Location: Bottens
(46.6171°N, 6.6605°E)
Time: 15:15:31
(UTC+00:00)

BREEZE-M R/B - Pass Details

Date: 20 June 2021
Orbit: 579 x 26589 km, 48.9° (Epoch: 31 July)

Event Time Altitude Azimuth Distance (km) Brightness Sun altitude
Exits shadow 01:16:18 31° 191° (S) 1,027 3.1 -16.3°
Maximum altitude 01:17:26 42° 145° (SE) 874 3.1 -16.2°
Drops below altitude 10° 01:21:58 10° 73° (ENE) 2,671 6.4 -15.9°
Sets 01:25:52 0° 67° (ENE) 4,623 7.8 -15.6°
